This demonstration page uses our WeatherBlox Daily Observations layout. Learn more.

Left ArrowRight Arrow

41.55636, -103.73856

Hourly Observations for January 20, 2015

Temp ( °F °C ) Dew Point ( °F °C ) Humidity (%) Winds ( mph kmh ) Pressure ( in mb ) Visibility ( mi km ) Precip ( " mm )
12:53 am 00:53 Partly Cloudy 25 -3.9 21 -6.1 85 85 NW 7 11 30.15 1021 10 16 0.00 0.00
1:53 am 01:53 Mostly Clear 24 -4.4 20 -6.7 84 84 WNW 6 9 30.16 1021 10 16 0.00 0.00
2:53 am 02:53 Clear 24 -4.4 19 -7.2 81 81 NW 8 13 30.17 1022 10 16 0.00 0.00
3:53 am 03:53 Cloudy 24 -4.4 20 -6.7 84 84 NW 8 13 30.16 1022 10 16 0.00 0.00
4:53 am 04:53 Cloudy 27 -2.8 22 -5.6 81 81 NW 7 11 30.17 1022 10 16 0.00 0.00
5:53 am 05:53 Cloudy 28 -2.2 23 -5 81 81 NW 9 15 30.17 1022 10 16 0.00 0.00
6:53 am 06:53 Cloudy 29 -1.7 24 -4.4 82 82 WNW 7 11 30.19 1022 10 16 0.00 0.00
7:53 am 07:53 Cloudy with Light Snow 31 -0.6 26 -3.3 82 82 WNW 9 15 30.22 1023 8 13 0.00 0.03
8:53 am 08:53 Cloudy with Light Snow 34 1.1 29 -1.7 82 82 W 10 17 30.21 1023 9 14 0.00 0.03
9:53 am 09:53 Mostly Cloudy 36 2.2 29 -1.7 76 76 WNW 13 20 30.23 1024 10 16 0.00 0.03
10:53 am 10:53 Mostly Cloudy 37 2.8 28 -2.2 70 70 WNW 13 20 30.24 1024 10 16 0.00 0.00
11:53 am 11:53 Cloudy 38 3.3 27 -2.8 65 65 NW 12 19 30.23 1024 10 16 0.00 0.00
12:53 pm 12:53 Cloudy 40 4.4 26 -3.3 58 58 W 13 20 30.20 1023 10 16 0.00 0.00
1:53 pm 13:53 Mostly Cloudy 37 2.8 25 -3.9 62 62 WNW 7 11 30.20 1023 10 16 0.00 0.03
2:53 pm 14:53 Cloudy 37 2.8 25 -3.9 62 62 NW 7 11 30.20 1023 10 16 0.00 0.00
3:53 pm 15:53 Mostly Sunny 36 2.2 24 -4.4 62 62 NNW 12 19 30.21 1023 10 16 0.00 0.00
4:53 pm 16:53 Sunny 31 -0.6 23 -5 72 72 WNW 6 9 30.22 1023 10 16 0.00 0.00
5:53 pm 17:53 Partly Cloudy 28 -2.2 21 -6.1 75 75 NW 6 9 30.24 1024 10 16 0.00 0.00
6:53 pm 18:53 Mostly Clear 28 -2.2 21 -6.1 75 75 WNW 7 11 30.27 1025 10 16 0.00 0.00
7:53 pm 19:53 Clear 23 -5 19 -7.2 85 85 WNW 6 9 30.29 1026 10 16 0.00 0.00
8:53 pm 20:53 Mostly Clear 25 -3.9 20 -6.7 81 81 W 6 9 30.29 1026 10 16 0.00 0.00
9:53 pm 21:53 Clear 26 -3.3 20 -6.7 78 78 W 10 17 30.28 1026 10 16 0.00 0.00
10:53 pm 22:53 Clear 24 -4.4 19 -7.2 81 81 WNW 7 11 30.29 1026 10 16 0.00 0.00
11:53 pm 23:53 Clear 21 -6.1 18 -7.8 88 88 WNW 7 11 30.29 1026 10 16 0.00 0.00

Powered by AerisWeather